User: anonymous   Login
Location: Dompnac
(44.5644°N, 4.1026°E)
Time: 04:09:35
(UTC+00:00)
Language:

Resurs 01 Rocket - Orbit

View from above orbital plane
View from above orbital plane
View from above satellite
View from above satellite

Ground track
Ground track

The orbit data is extracted from the following two-line orbital elements,

1 23343U 94074B   20336.18503122 +.00000101 +00000-0 +21705-4 0  9996
2 23343 097.9774 027.5101 0006387 344.9372 080.5838 14.76849175403025
Epoch (UTC): 01 December 2020 04:26:26
Eccentricity: 0.0006387
inclination: 97.9774°
perigee height: 635 km
apogee height: 644 km
right ascension of ascending node: 27.5101°
argument of perigee: 344.9372°
revolutions per day: 14.76849175
mean anomaly at epoch: 80.5838°
orbit number at epoch: 40302

The dashed part of the orbit path shows where the satellite is in the earth's shadow,  

DLR